1535018401.14,59971,22.31,74586.5,29.81,-2.39,-3.03,0,*44
1535018402.39,59972,22.31,74586.0,29.79,-1.05,-1.67,0,*4C
1535018403.61,59973,22.31,74588.0,29.71,0.55,-0.29,0,*67
1535018404.84,59974,22.31,74586.8,29.67,0.41,-0.73,0,*6D
1535018406.05,59975,22.31,74586.5,29.63,-0.19,-1.75,0,*7F
1535018407.27,59976,22.31,74586.3,29.57,0.59,-0.97,0,*6F
1535018408.52,59977,22.31,74584.8,29.53,1.33,-0.15,0,*5D
1535018409.74,59978,22.31,74586.0,29.49,2.91,1.43,0,*4D
1535018410.97,59979,22.31,74584.0,29.45,0.91,-0.81,0,*60
1535018412.17,59980,22.31,74584.3,29.41,0.97,-0.45,0,*6C
1535018413.41,59981,22.31,74586.5,29.37,2.73,1.43,0,*4E
1535018414.64,59982,22.31,74582.5,29.35,3.41,1.97,0,*46
1535018415.85,59983,22.31,74586.8,29.33,3.93,2.61,0,*44
1535018417.07,59984,22.31,74582.5,29.31,1.33,-0.07,0,*66
1535018418.26,59985,22.31,74586.3,29.31,1.41,-0.11,0,*55
1535018419.45,59986,22.31,74584.8,29.27,2.73,1.41,0,*4A
1535018420.68,59987,22.31,74588.5,29.27,3.23,2.01,0,*48
1535018421.91,59988,22.31,74584.8,29.23,2.35,1.09,0,*4E
1535018423.16,59989,22.31,74586.5,29.23,2.77,1.37,0,*44
1535018424.36,59990,22.31,74586.3,29.19,1.05,-0.29,0,*50
1535018425.56,59991,22.31,74586.5,29.17,0.83,-0.45,0,*6A
1535018426.8,59992,22.31,74588.8,29.11,0.95,-0.15,0,*6D
1535018428.03,59993,22.31,74586.3,29.07,0.91,-0.81,0,*62
1535018429.26,59994,22.31,74584.3,29.03,1.55,-0.03,0,*62
1535018430.48,59995,22.31,74586.0,29.01,1.63,-0.19,0,*5F
1535018431.71,59996,22.31,74586.8,28.99,2.13,-0.07,0,*67
1535018432.96,59997,22.31,74584.8,28.95,2.47,0.17,0,*77
1535018434.19,59998,22.31,74586.3,28.91,1.51,-1.39,0,*68
1535018435.45,59999,22.31,74584.3,28.85,1.63,-1.35,0,*61
1535018436.68,60000,22.31,74584.3,28.83,3.11,0.37,0,*7D
1535018437.9,60001,22.31,74586.0,28.79,1.89,-0.85,0,*5E
1535018439.1,60002,22.31,74584.3,28.75,0.47,-2.39,0,*57
1535018440.32,60003,22.31,74586.5,28.69,0.29,-2.43,0,*5E
1535018441.6,60004,22.31,74584.8,28.65,1.33,-1.39,0,*61
1535018442.81,60005,22.31,74584.8,28.61,2.27,-0.19,0,*51
1535018444.03,60006,22.31,74584.3,28.61,1.89,-0.69,0,*52
1535018445.26,60007,22.31,74586.0,28.57,1.43,-1.13,0,*6C
1535018446.48,60008,22.31,74586.5,28.55,0.29,-2.39,0,*57
1535018447.73,60009,22.31,74586.3,28.51,-0.19,-2.71,0,*70
1535018448.98,60010,22.31,74584.8,28.43,-1.05,-3.39,0,*4A
1535018450.18,60011,22.31,74586.0,28.39,-0.61,-3.03,0,*7C
1535018451.4,60012,22.31,74584.5,28.35,-0.65,-2.99,0,*75
1535018452.61,60013,22.31,74586.8,28.29,-0.89,-2.91,0,*73
1535018453.81,60014,22.31,74586.0,28.21,-1.25,-3.23,0,*43
1535018455.01,60015,22.31,74588.3,28.19,0.59,-1.29,0,*56
1535018456.25,60016,22.31,74586.3,28.17,1.33,-0.61,0,*5B
1535018457.49,60017,22.31,74584.3,28.13,1.37,-0.57,0,*5F
1535018458.72,60018,22.31,74582.0,28.13,1.25,-0.81,0,*58
1535018459.95,60019,22.31,74584.3,28.09,1.05,-0.89,0,*58
1535018461.2,60020,22.31,74590.0,28.05,0.75,-1.43,0,*5F
1535018462.43,60021,22.31,74584.8,28.01,0.21,-1.75,0,*5E
1535018463.63,60022,22.31,74586.8,27.99,0.59,-1.33,0,*5E
1535018464.87,60023,22.31,74584.8,27.95,1.93,-0.33,0,*55
1535018466.1,60024,22.31,74584.0,27.95,1.47,-0.41,0,*5E
1535018467.31,60025,22.31,74580.5,27.89,1.29,-0.57,0,*5D
1535018468.56,60026,22.31,74586.8,27.91,1.89,0.17,0,*74
1535018469.77,60027,22.31,74586.5,27.89,0.95,-0.93,0,*61
1535018470.99,60028,22.31,74586.0,27.85,1.09,-0.77,0,*5C
1535018472.24,60029,22.31,74586.5,27.79,-1.05,-3.15,0,*48
1535018473.49,60030,22.31,74586.5,27.75,0.51,-1.35,0,*51
1535018474.71,60031,22.31,74580.5,27.71,0.97,-0.89,0,*68
1535018475.9,60032,22.31,74586.0,27.69,1.41,-0.45,0,*58
1535018477.09,60033,22.31,74586.0,27.65,-0.73,-2.79,0,*75
1535018478.31,60034,22.31,74584.3,27.63,0.25,-1.59,0,*5B
1535018479.56,60035,22.31,74584.3,27.59,0.41,-1.43,0,*5A
1535018480.81,60036,22.31,74586.3,27.55,-0.65,-2.75,0,*78
1535018482.02,60037,22.31,74586.8,27.51,-0.19,-2.15,0,*70
1535018483.25,60038,22.31,74586.8,27.47,0.05,-1.83,0,*64
1535018484.48,60039,22.31,74586.3,27.43,-0.77,-2.67,0,*70
1535018485.75,60040,22.31,74586.3,27.39,-1.39,-3.63,0,*4D
1535018486.95,60041,22.31,74584.8,27.33,-1.17,-3.15,0,*4B
1535018488.15,60042,22.31,74588.3,27.33,-1.17,-3.03,0,*4F
1535018489.37,60043,22.31,74586.3,27.29,0.21,-1.51,0,*59
1535018490.56,60044,22.38,74588.5,27.23,-0.45,-2.35,0,*7A
1535018491.77,60045,22.38,74590.5,27.21,-0.33,-2.23,0,*7F
1535018493.01,60046,22.38,74586.8,27.17,-0.77,-2.55,0,*78
1535018494.22,60047,22.31,74584.0,27.11,-0.03,-1.87,0,*40
1535018495.42,60048,22.31,74584.8,27.11,0.51,-1.25,0,*5D
1535018496.63,60049,22.31,74580.8,27.09,1.05,-0.69,0,*5C
1535018497.86,60050,22.31,74584.0,27.07,2.43,0.87,0,*76
1535018499.09,60051,22.31,74586.8,27.09,4.45,3.15,0,*41
1535018500.33,60052,22.31,74584.5,27.15,3.79,2.39,0,*48
1535018501.55,60053,22.31,74586.0,27.15,3.93,2.81,0,*4E
1535018502.77,60054,22.38,74588.3,27.17,4.37,3.23,0,*4B
1535018503.98,60055,22.31,74584.3,27.21,5.59,4.53,0,*46
1535018505.2,60056,22.31,74584.3,27.23,6.65,5.67,0,*4D
1535018506.4,60057,22.31,74586.0,27.27,5.81,4.85,0,*4C
1535018507.61,60058,22.31,74584.8,27.31,5.59,4.71,0,*4A
1535018508.81,60059,22.31,74584.3,27.37,3.25,2.39,0,*4A
1535018510.01,60060,22.31,74584.0,27.31,1.41,0.67,0,*7F
1535018511.23,60061,22.38,74590.0,27.29,0.87,0.09,0,*74
1535018512.43,60062,22.38,74586.5,27.27,-0.37,-0.89,0,*4A
1535018513.67,60063,22.38,74584.8,27.25,0.55,0.37,0,*48
1535018514.91,60064,22.31,74586.0,27.21,0.63,0.33,0,*4A
1535018516.14,60065,22.31,74582.3,27.19,1.21,1.09,0,*4F
1535018517.4,60066,22.31,74584.3,27.17,1.17,1.17,0,*48
1535018518.65,60067,22.31,74582.5,27.17,2.85,2.85,0,*49
1535018519.85,60068,22.38,74586.5,27.19,5.45,5.51,0,*4D
1535018521.09,60069,22.38,74586.5,27.23,6.17,6.47,0,*45
1535018522.26,60070,22.31,74584.3,27.27,6.93,7.33,0,*47
1535018523.43,60071,22.31,74586.3,27.31,6.79,7.33,0,*45
1535018524.66,60072,22.31,74580.3,27.37,6.13,6.73,0,*49
1535018525.87,60073,22.31,74586.8,27.41,5.85,6.53,0,*47
1535018527.06,60074,22.31,74584.8,27.45,6.03,6.75,0,*4D
1535018528.27,60075,22.31,74586.5,27.47,6.75,7.59,0,*40
1535018529.45,60076,22.31,74586.0,27.53,8.09,9.07,0,*46
1535018530.68,60077,22.31,74588.3,27.59,7.11,8.27,0,*48
1535018531.88,60078,22.31,74586.8,27.63,6.83,7.97,0,*40
1535018533.08,60079,22.31,74584.0,27.67,7.01,8.23,0,*4E
1535018534.29,60080,22.31,74586.3,27.71,7.51,8.87,0,*44
1535018535.52,60081,22.31,74584.5,27.75,7.29,8.75,0,*43
1535018536.72,60082,22.31,74584.0,27.79,7.41,8.87,0,*4F
1535018537.97,60083,22.31,74584.3,27.85,6.65,8.13,0,*47
1535018539.19,60084,22.31,74584.3,27.89,6.69,8.29,0,*49
1535018540.42,60085,22.31,74586.3,27.91,7.41,9.19,0,*48
1535018541.64,60086,22.31,74584.5,27.95,7.33,9.01,0,*43
1535018542.86,60087,22.31,74584.3,27.99,7.51,9.19,0,*43
1535018544.09,60088,22.38,74588.8,28.05,8.37,10.17,0,*7F
1535018545.31,60089,22.38,74588.8,28.11,8.41,10.55,0,*7C
1535018546.52,60090,22.31,74586.3,28.15,9.25,11.07,0,*75
1535018547.72,60091,22.31,74584.0,28.19,7.87,9.43,0,*47
1535018548.93,60092,22.31,74584.0,28.21,7.59,9.43,0,*4C
1535018550.13,60093,22.31,74582.5,28.23,7.83,9.71,0,*49
1535018551.37,60094,22.31,74586.5,28.29,8.33,10.27,0,*7B
1535018552.55,60095,22.31,74586.8,28.33,8.01,9.95,0,*41
1535018553.79,60096,22.31,74584.8,28.37,7.61,9.53,0,*45
1535018555.0,60097,22.38,74586.3,28.37,7.87,9.75,0,*48
1535018556.19,60098,22.38,74586.8,28.41,7.55,9.47,0,*48
1535018557.43,60099,22.38,74586.0,28.45,7.19,9.19,0,*4E
1535018558.63,60100,22.31,74584.3,28.45,7.69,9.91,0,*48
1535018559.85,60101,22.38,74586.8,28.45,8.19,10.27,0,*74
1535018561.12,60102,22.38,74584.8,28.51,8.89,10.99,0,*7E
1535018562.34,60103,22.31,74582.5,28.55,9.43,11.67,0,*7C
1535018563.58,60104,22.38,74588.3,28.59,8.93,11.21,0,*79
1535018564.76,60105,22.31,74586.3,28.63,8.79,11.09,0,*7F
1535018565.97,60106,22.38,74586.5,28.67,9.57,11.85,0,*71
1535018567.18,60107,22.38,74584.3,28.67,9.81,12.19,0,*7D
1535018568.43,60108,22.31,74584.3,28.77,8.93,11.33,0,*7A
1535018569.64,60109,22.31,74582.0,28.79,8.69,11.23,0,*71
1535018570.82,60110,22.31,74584.8,28.83,9.03,11.51,0,*74
1535018572.03,60111,22.31,74586.0,28.85,7.97,10.33,0,*75
1535018573.25,60112,22.31,74586.5,28.87,7.79,10.23,0,*75
1535018574.51,60113,22.38,74586.5,28.89,10.41,13.01,0,*44
1535018575.74,60114,22.31,74586.3,28.95,9.25,11.75,0,*75
1535018576.98,60115,22.31,74586.3,28.97,9.85,12.33,0,*7D
1535018578.17,60116,22.31,74580.8,29.01,8.83,11.51,0,*70
1535018579.41,60117,22.31,74584.8,29.03,9.53,12.19,0,*70
1535018580.63,60118,22.38,74584.8,29.07,10.41,13.11,0,*49
1535018581.9,60119,22.31,74584.8,29.11,10.23,13.01,0,*4A
1535018583.1,60120,22.38,74586.8,29.17,10.93,13.71,0,*4A
1535018584.34,60121,22.31,74580.8,29.23,11.03,13.89,0,*43
1535018585.58,60122,22.38,74586.5,29.25,10.55,13.27,0,*40
1535018586.83,60123,22.38,74584.8,29.31,11.33,14.21,0,*44
1535018588.11,60124,22.38,74584.0,29.33,11.45,14.45,0,*42
1535018589.32,60125,22.31,74584.8,29.43,11.13,14.11,0,*46
1535018590.52,60126,22.31,74586.0,29.47,11.47,14.39,0,*4A
1535018591.73,60127,22.38,74584.5,29.51,10.61,13.59,0,*48
1535018592.92,60128,22.38,74584.3,29.57,11.93,15.01,0,*46
1535018594.17,60129,22.38,74588.0,29.57,12.63,15.67,0,*4B
1535018595.41,60130,22.38,74584.3,29.67,12.19,15.41,0,*49
1535018596.63,60131,22.38,74584.8,29.69,11.09,14.25,0,*47
1535018597.87,60132,22.38,74586.8,29.73,10.99,14.19,0,*48
1535018599.09,60133,22.38,74590.0,29.77,10.55,13.69,0,*4D
1535018600.3,60134,22.38,74584.8,29.77,9.01,12.39,0,*77
1535018601.54,60135,22.31,74582.5,29.79,10.69,13.95,0,*49
1535018602.75,60136,22.38,74584.3,29.85,10.85,14.19,0,*48
1535018603.96,60137,22.31,74586.5,29.87,10.03,13.45,0,*4B
1535018605.16,60138,22.31,74582.3,29.91,10.41,13.75,0,*46
1535018606.39,60139,22.38,74586.5,29.95,10.33,13.69,0,*4B
1535018607.64,60140,22.31,74584.3,29.97,8.97,12.53,0,*78
1535018608.86,60141,22.38,74584.3,29.99,9.11,12.61,0,*79
1535018610.07,60142,22.31,74584.5,29.99,8.27,11.71,0,*7C
1535018611.27,60143,22.38,74586.0,29.99,8.61,12.17,0,*7C
1535018612.5,60144,22.31,74582.5,29.99,8.93,12.13,0,*72
1535018613.67,60145,22.38,74586.3,29.99,8.45,11.93,0,*73
1535018614.91,60146,22.38,74584.0,29.99,7.87,11.61,0,*7C
1535018616.12,60147,22.38,74582.8,29.99,7.61,11.21,0,*71
1535018617.33,60148,22.38,74584.8,29.99,7.51,11.27,0,*7B
1535018618.56,60149,22.38,74586.3,29.99,7.61,11.41,0,*79
1535018619.78,60150,22.38,74584.0,29.99,6.65,10.85,0,*7D
1535018621.01,60151,22.31,74580.8,29.97,8.61,12.67,0,*76
1535018622.25,60152,22.38,74586.3,29.99,9.49,13.61,0,*77
1535018623.49,60153,22.38,74584.5,30.01,8.75,12.81,0,*7E
1535018624.67,60154,22.31,74582.3,30.03,8.79,12.73,0,*7A
1535018625.91,60155,22.38,74586.3,30.05,8.61,12.83,0,*7B
1535018627.13,60156,22.31,74582.8,30.05,8.23,12.43,0,*72
1535018628.36,60157,22.38,74584.0,30.09,9.99,14.15,0,*7A
1535018629.58,60158,22.38,74584.3,30.15,10.05,14.25,0,*46
1535018630.81,60159,22.38,74586.8,30.13,9.99,14.11,0,*7B
1535018632.07,60160,22.31,74582.5,30.17,8.41,12.67,0,*76
1535018633.3,60161,22.38,74584.5,30.17,8.71,13.11,0,*74
1535018634.51,60162,22.31,74584.3,30.19,8.09,12.57,0,*75
1535018635.7,60163,22.38,74584.8,30.19,8.79,13.25,0,*77
1535018636.93,60164,22.31,74580.5,30.21,8.41,12.61,0,*71
1535018638.14,60165,22.38,74586.3,30.21,7.97,12.39,0,*79
1535018639.38,60166,22.38,74584.3,30.21,7.73,12.03,0,*79
1535018640.64,60167,22.31,74580.8,30.21,8.97,13.55,0,*7F
1535018641.86,60168,22.31,74584.5,30.23,9.03,13.69,0,*71
1535018643.09,60169,22.38,74586.0,30.25,8.75,13.11,0,*79
1535018644.33,60170,22.38,74584.8,30.25,8.15,12.91,0,*7E
1535018645.57,60171,22.38,74584.3,30.27,9.35,14.15,0,*74
1535018646.76,60172,22.38,74586.0,30.31,9.03,13.89,0,*77
1535018647.95,60173,22.38,74586.5,30.35,9.95,14.85,0,*76
1535018649.16,60174,22.38,74584.0,30.35,10.47,15.21,0,*49
1535018650.35,60175,22.38,74584.0,30.39,9.33,14.31,0,*7F
1535018651.57,60176,22.38,74584.5,30.39,8.71,13.59,0,*72
1535018652.77,60177,22.38,74586.5,30.43,9.95,14.75,0,*7C
1535018654.0,60178,22.38,74584.8,30.45,9.89,14.81,0,*73
1535018655.23,60179,22.31,74580.0,30.43,10.03,14.95,0,*4B
1535018656.44,60180,22.38,74584.0,30.47,9.25,14.29,0,*72
1535018657.66,60181,22.38,74586.3,30.49,9.33,14.11,0,*71
1535018658.87,60182,22.31,74580.8,30.49,9.47,14.31,0,*73
1535018660.11,60183,22.38,74584.0,30.55,10.61,15.65,0,*43
1535018661.31,60184,22.38,74582.0,30.57,11.55,16.49,0,*4D
1535018662.5,60185,22.31,74580.5,30.61,13.15,17.95,0,*4F
1535018663.78,60186,22.38,74586.3,30.67,13.39,18.15,0,*43
1535018664.96,60187,22.38,74584.5,30.73,11.93,16.65,0,*4C
1535018666.19,60188,22.38,74586.5,30.77,12.97,17.67,0,*43
1535018667.47,60189,22.38,74584.3,30.83,13.35,17.89,0,*40
1535018668.7,60190,22.38,74586.8,30.85,11.65,16.17,0,*4F
1535018669.91,60191,22.38,74584.0,30.87,10.69,15.31,0,*46
1535018671.17,60192,22.38,74586.3,30.89,10.75,15.37,0,*40
1535018672.39,60193,22.38,74588.5,30.93,10.09,14.81,0,*4D
1535018673.61,60194,22.38,74584.3,30.91,9.43,14.15,0,*73
1535018674.81,60195,22.38,74584.3,30.91,9.75,14.49,0,*7E
1535018676.06,60196,22.31,74582.5,30.93,9.81,14.61,0,*7E
1535018677.24,60197,22.38,74586.8,30.91,9.95,14.89,0,*7E
1535018678.5,60198,22.38,74584.5,30.93,10.79,15.55,0,*49
1535018679.72,60199,22.38,74586.0,30.95,10.37,15.09,0,*4D
1535018680.9,60200,22.38,74582.8,30.99,9.99,14.69,0,*79
1535018682.11,60201,22.38,74586.3,31.01,11.81,16.49,0,*48
1535018683.32,60202,22.38,74584.3,31.05,13.41,18.09,0,*4B
1535018684.53,60203,22.38,74584.8,31.09,13.25,17.83,0,*49
1535018685.77,60204,22.38,74584.5,31.13,11.79,16.23,0,*45
1535018687.0,60205,22.38,74586.3,31.15,10.19,14.71,0,*40
1535018688.22,60206,22.38,74584.0,31.17,10.31,14.89,0,*4C
1535018689.45,60207,22.38,74586.5,31.17,11.03,15.51,0,*49
1535018690.68,60208,22.38,74586.0,31.17,9.77,14.71,0,*7F
1535018691.88,60209,22.38,74584.8,31.17,9.95,14.45,0,*75
1535018693.12,60210,22.38,74586.3,31.21,10.99,15.67,0,*4D
1535018694.35,60211,22.38,74584.5,31.23,10.51,15.15,0,*4F
1535018695.56,60212,22.38,74586.5,31.23,9.07,13.71,0,*73
1535018696.79,60213,22.38,74584.8,31.23,8.69,13.39,0,*77
1535018698.03,60214,22.38,74584.5,31.23,8.79,13.27,0,*7E
1535018699.19,60215,22.38,74588.8,31.21,7.01,11.65,0,*79
1535018700.37,60216,22.38,74586.5,31.15,5.33,9.95,0,*48
1535018701.58,60217,22.38,74584.0,31.11,6.03,10.57,0,*7B
1535018702.77,60218,22.38,74586.3,31.07,5.95,10.47,0,*7E
1535018703.98,60219,22.38,74584.8,31.03,4.31,8.83,0,*45
1535018705.2,60220,22.38,74584.0,30.93,3.49,7.97,0,*45
1535018706.45,60221,22.38,74590.0,30.89,4.01,8.47,0,*46
1535018707.65,60222,22.38,74586.8,30.81,4.93,9.29,0,*4F
1535018708.85,60223,22.38,74586.8,30.77,4.79,9.03,0,*4B
1535018710.09,60224,22.38,74584.5,30.71,6.39,10.93,0,*7D
1535018711.35,60225,22.38,74586.3,30.71,6.39,10.41,0,*73
1535018712.56,60226,22.38,74584.8,30.67,5.95,9.95,0,*43
1535018713.81,60227,22.38,74586.5,30.63,6.51,10.51,0,*7D
1535018715.04,60228,22.38,74588.0,30.59,5.95,9.89,0,*4D
1535018716.28,60229,22.38,74588.0,30.59,5.73,9.71,0,*43
1535018717.52,60230,22.38,74586.5,30.55,6.03,9.89,0,*44
1535018718.75,60231,22.38,74584.0,30.49,3.79,7.59,0,*43
1535018719.99,60232,22.38,74584.8,30.41,2.85,6.57,0,*45
1535018721.22,60233,22.38,74584.5,30.35,3.11,6.91,0,*41
1535018722.42,60234,22.38,74584.5,30.27,3.53,7.33,0,*4A
1535018723.65,60235,22.38,74584.0,30.23,5.05,8.71,0,*43
1535018724.85,60236,22.38,74586.8,30.19,4.67,8.45,0,*4B
1535018726.06,60237,22.38,74584.8,30.17,5.59,9.07,0,*4F
1535018727.26,60238,22.38,74586.3,30.11,4.11,7.69,0,*4D
1535018728.47,60239,22.38,74584.0,30.09,4.37,7.97,0,*40
1535018729.66,60240,22.38,74584.5,30.03,5.27,8.79,0,*4B
1535018730.88,60241,22.38,74584.5,30.01,5.11,8.75,0,*41
1535018732.11,60242,22.38,74580.5,29.97,5.41,8.93,0,*48
1535018733.32,60243,22.38,74584.8,29.93,4.49,8.05,0,*4B
1535018734.55,60244,22.38,74586.3,29.89,2.99,6.65,0,*44
1535018735.72,60245,22.38,74586.8,29.85,3.63,7.33,0,*4F
1535018736.92,60246,22.38,74584.0,29.79,3.89,7.37,0,*4F
1535018738.16,60247,22.38,74588.8,29.73,4.31,7.95,0,*48
1535018739.38,60248,22.38,74584.0,29.71,4.81,8.29,0,*46
1535018740.62,60249,22.38,74586.5,29.67,4.07,7.65,0,*49
1535018741.86,60250,22.38,74586.8,29.63,4.01,7.47,0,*43
1535018743.07,60251,22.38,74582.8,29.57,4.81,8.29,0,*4A
1535018744.27,60252,22.38,74586.5,29.57,3.97,7.45,0,*4C
1535018745.5,60253,22.38,74586.8,29.53,4.37,7.95,0,*49
1535018746.7,60254,22.38,74586.3,29.51,5.07,8.59,0,*41
1535018747.92,60255,22.38,74584.5,29.45,5.07,8.47,0,*4A
1535018749.15,60256,22.38,74582.5,29.43,4.97,8.59,0,*48
1535018750.39,60257,22.38,74584.8,29.41,5.51,9.11,0,*4D
1535018751.6,60258,22.38,74582.0,29.41,5.41,8.87,0,*4D
1535018752.83,60259,22.38,74584.3,29.33,5.07,8.47,0,*47
1535018754.05,60260,22.38,74584.0,29.33,3.41,6.79,0,*4A
1535018755.26,60261,22.38,74586.3,29.27,3.93,7.15,0,*4A
1535018756.46,60262,22.38,74584.3,29.23,3.85,7.01,0,*4F
1535018757.66,60263,22.38,74584.5,29.21,5.01,8.23,0,*49
1535018758.89,60264,22.38,74582.8,29.19,5.23,8.51,0,*40
1535018760.11,60265,22.38,74586.3,29.13,5.27,8.47,0,*48
1535018761.32,60266,22.38,74588.0,29.13,4.67,7.79,0,*4C
1535018762.51,60267,22.38,74584.3,29.09,4.19,7.37,0,*45
1535018763.71,60268,22.38,74584.8,29.05,4.93,8.15,0,*4B
1535018764.92,60269,22.38,74584.0,29.03,4.33,7.45,0,*4C
1535018766.12,60270,22.38,74586.5,29.01,5.23,8.29,0,*43
1535018767.31,60271,22.38,74586.3,28.97,5.19,8.27,0,*4B
1535018768.54,60272,22.38,74586.5,28.97,6.17,9.15,0,*45
1535018769.75,60273,22.38,74586.3,28.97,6.43,9.29,0,*4A
1535018770.98,60274,22.38,74584.0,28.95,6.87,9.67,0,*4D
1535018772.16,60275,22.38,74584.5,28.91,5.49,8.65,0,*4A
1535018773.36,60276,22.38,74580.5,28.91,4.59,7.37,0,*41
1535018774.56,60277,22.38,74584.5,28.87,4.37,7.11,0,*4B
1535018775.76,60278,22.38,74586.8,28.83,4.45,7.11,0,*45
1535018776.99,60279,22.38,74586.3,28.81,4.59,7.33,0,*4B
1535018778.22,60280,22.38,74586.5,28.77,5.01,7.55,0,*48
1535018779.42,60281,22.38,74586.5,28.75,5.33,7.87,0,*45
1535018780.66,60282,22.38,74584.0,28.69,4.05,6.57,0,*43
1535018781.87,60283,22.38,74586.8,28.67,5.63,8.13,0,*43
1535018783.13,60284,22.38,74584.5,28.65,4.75,7.19,0,*45
1535018784.33,60285,22.38,74586.0,28.63,5.01,7.33,0,*48
1535018785.55,60286,22.38,74584.5,28.61,4.37,6.61,0,*4B
1535018786.75,60287,22.38,74586.8,28.57,3.63,5.73,0,*49
1535018787.95,60288,22.38,74584.3,28.53,3.59,5.77,0,*4F
1535018789.18,60289,22.38,74590.5,28.47,3.85,5.85,0,*47
1535018790.41,60290,22.38,74584.5,28.43,5.51,7.51,0,*4F
1535018791.64,60291,22.38,74586.8,28.43,5.23,7.15,0,*4B
1535018792.9,60292,22.38,74588.0,28.43,6.69,8.47,0,*4D
1535018794.13,60293,22.38,74584.8,28.41,6.91,8.51,0,*4E
1535018795.37,60294,22.38,74586.8,28.39,6.39,8.09,0,*49
1535018796.56,60295,22.38,74582.5,28.39,7.01,8.69,0,*44
1535018797.79,60296,22.38,74584.0,28.41,8.37,10.13,0,*76
1535018798.98,60297,22.38,74586.3,28.41,10.43,12.03,0,*4E
1535018800.19,60298,22.38,74584.3,28.45,10.65,12.23,0,*43
1535018801.43,60299,22.38,74582.8,28.51,10.69,12.29,0,*41
1535018802.69,60300,22.38,74584.0,28.55,10.83,12.09,0,*42
1535018803.9,60301,22.38,74584.0,28.59,10.43,11.47,0,*4A
1535018805.08,60302,22.38,74584.5,28.63,10.89,12.23,0,*47
1535018806.35,60303,22.38,74584.5,28.65,12.71,13.95,0,*49
1535018807.62,60304,22.38,74586.0,28.73,12.91,14.15,0,*48
1535018808.8,60305,22.38,74582.5,28.79,13.11,14.31,0,*4C
1535018810.02,60306,22.38,74586.3,28.85,12.73,13.89,0,*4D
1535018811.28,60307,22.38,74584.3,28.89,11.95,13.01,0,*4B
1535018812.53,60308,22.38,74588.0,28.95,11.45,12.61,0,*43
1535018813.76,60309,22.38,74588.8,28.99,11.65,12.73,0,*4F
1535018814.97,60310,22.38,74588.0,29.03,12.73,13.79,0,*4A
1535018816.22,60311,22.38,74586.5,29.07,13.39,14.35,0,*4F
1535018817.46,60312,22.38,74586.8,29.11,12.91,13.79,0,*47
1535018818.71,60313,22.38,74584.0,29.19,12.87,13.75,0,*45
1535018819.95,60314,22.38,74584.8,29.23,12.73,13.55,0,*42
1535018821.18,60315,22.38,74584.3,29.29,11.27,11.65,0,*4A
1535018822.42,60316,22.38,74588.5,29.29,9.95,10.71,0,*7D
1535018823.63,60317,22.38,74586.0,29.31,10.47,10.99,0,*44
1535018824.84,60318,22.38,74584.0,29.29,8.45,9.07,0,*46
1535018826.06,60319,22.38,74586.8,29.29,8.45,8.97,0,*4F
1535018827.27,60320,22.38,74586.3,29.27,8.27,8.97,0,*4F
1535018828.5,60321,22.38,74586.8,29.27,8.93,9.49,0,*43
1535018829.71,60322,22.38,74582.3,29.27,8.05,8.59,0,*4F
1535018830.94,60323,22.38,74584.5,29.25,7.65,8.05,0,*4C
1535018832.16,60324,22.38,74584.0,29.23,7.11,7.33,0,*44
1535018833.39,60325,22.38,74590.8,29.23,7.29,7.47,0,*4D
1535018834.57,60326,22.38,74580.3,29.21,6.97,7.09,0,*42
1535018835.75,60327,22.38,74584.8,29.13,6.83,7.05,0,*4B
1535018836.98,60328,22.38,74584.8,29.19,6.79,6.91,0,*47
1535018838.17,60329,22.38,74586.8,29.13,6.21,6.33,0,*49
1535018839.36,60330,22.38,74586.3,29.09,5.99,6.11,0,*4A
1535018840.57,60331,22.38,74586.8,29.05,6.11,6.17,0,*42
1535018841.81,60332,22.38,74588.0,29.05,6.35,6.43,0,*46
1535018843.05,60333,22.38,74586.3,29.01,6.47,6.51,0,*45
1535018844.28,60334,22.38,74586.0,29.01,6.13,6.13,0,*45
1535018845.46,60335,22.38,74586.3,28.97,7.05,7.01,0,*4E
1535018846.69,60336,22.38,74582.5,28.97,7.23,7.15,0,*4C
1535018847.92,60337,22.38,74586.3,28.95,6.87,6.83,0,*4E
1535018849.12,60338,22.38,74584.8,28.95,7.51,7.41,0,*44
1535018850.33,60339,22.38,74586.8,28.97,7.47,7.37,0,*41
1535018851.56,60340,22.38,74580.5,28.97,6.87,6.57,0,*45
1535018852.74,60341,22.38,74584.5,28.91,5.99,5.67,0,*4E
1535018853.95,60342,22.38,74584.5,28.89,6.11,5.99,0,*46
1535018855.12,60343,22.38,74586.0,28.87,7.05,6.75,0,*4C
1535018856.35,60344,22.38,74584.3,28.87,6.87,6.65,0,*41
1535018857.58,60345,22.38,74584.0,28.89,8.19,7.73,0,*41
1535018858.83,60346,22.38,74584.5,28.89,8.51,8.33,0,*45
1535018860.06,60347,22.38,74584.0,28.89,7.97,7.73,0,*4A
1535018861.29,60348,22.38,74588.0,28.89,8.15,7.83,0,*4F
1535018862.52,60349,22.38,74584.8,28.95,9.43,9.15,0,*40
1535018863.75,60350,22.38,74586.5,28.97,8.41,7.83,0,*48
1535018864.95,60351,22.38,74584.0,28.99,8.61,8.27,0,*44
1535018866.17,60352,22.38,74586.3,29.01,7.95,7.37,0,*4D
1535018867.41,60353,22.38,74584.8,28.99,8.27,7.95,0,*42
1535018868.59,60354,22.38,74586.3,29.01,8.61,8.27,0,*41
1535018869.83,60355,22.38,74584.0,29.03,8.33,8.01,0,*41
1535018871.03,60356,22.38,74586.8,29.05,7.09,6.57,0,*4F
1535018872.24,60357,22.38,74584.0,29.01,5.33,4.97,0,*4F
1535018873.47,60358,22.38,74584.3,29.01,5.93,5.77,0,*45
1535018874.66,60359,22.38,74584.5,29.01,5.67,5.41,0,*4A
1535018875.84,60360,22.38,74584.0,28.97,5.37,5.15,0,*4A
1535018877.02,60361,22.38,74586.3,28.97,4.81,4.57,0,*40
1535018878.23,60362,22.38,74586.8,28.95,4.41,4.33,0,*4F
1535018879.43,60363,22.38,74582.0,28.91,3.25,3.11,0,*48
1535018880.65,60364,22.38,74586.0,28.87,3.33,3.07,0,*48
1535018881.85,60365,22.38,74586.3,28.83,3.49,3.29,0,*4C
1535018883.07,60366,22.38,74584.3,28.79,2.69,2.47,0,*40
1535018884.33,60367,22.38,74584.5,28.77,2.81,2.51,0,*4E
1535018885.56,60368,22.38,74584.0,28.69,2.27,2.13,0,*44
1535018886.79,60369,22.38,74584.8,28.67,2.05,1.93,0,*40
1535018887.99,60370,22.38,74586.3,28.63,2.31,2.43,0,*45
1535018889.25,60371,22.38,74580.5,28.61,2.85,2.81,0,*47
1535018890.45,60372,22.38,74584.0,28.57,2.99,3.15,0,*40
1535018891.7,60373,22.38,74584.5,28.55,2.39,1.93,0,*45
1535018892.97,60374,22.38,74584.0,28.51,1.29,1.37,0,*4A
1535018894.19,60375,22.38,74584.3,28.45,1.51,1.55,0,*45
1535018895.44,60376,22.38,74582.8,28.43,2.59,2.61,0,*4F
1535018896.64,60377,22.38,74582.8,28.39,2.27,2.31,0,*4F
1535018897.84,60378,22.38,74586.5,28.37,3.37,3.59,0,*41
1535018899.1,60379,22.38,74584.0,28.35,3.37,3.49,0,*43
1535018900.36,60380,22.38,74584.0,28.31,1.43,1.33,0,*4F
1535018901.59,60381,22.38,74584.5,28.31,2.43,2.65,0,*4D
1535018902.8,60382,22.38,74582.3,28.29,1.71,1.83,0,*4E
1535018904.01,60383,22.38,74586.0,28.23,1.55,1.79,0,*46
1535018905.27,60384,22.38,74582.3,28.21,1.97,2.09,0,*49
1535018906.52,60385,22.38,74586.3,28.17,2.25,2.39,0,*44
1535018907.73,60386,22.38,74582.8,28.15,2.99,3.03,0,*4A
1535018908.95,60387,22.38,74582.8,28.13,3.19,3.25,0,*40
1535018910.18,60388,22.38,74584.0,28.15,2.13,2.25,0,*43
1535018911.41,60389,22.38,74582.8,28.11,1.43,1.37,0,*40
1535018912.66,60390,22.38,74584.5,28.05,1.85,1.93,0,*49
1535018913.92,60391,22.38,74580.5,28.05,1.97,2.05,0,*47
1535018915.17,60392,22.38,74580.5,28.01,1.59,1.59,0,*48
1535018916.4,60393,22.38,74582.0,27.97,1.85,1.79,0,*4A